When you browse on this site, cookies collect data to enhance your experience and personalize the content and advertising you see.
Visit our Privacy Policy to learn more. By continuing to use the site, you agree to this use of cookies and data.

Hourly Weather Maracay

Today, 12 July, Sunday

Time Temperature Precipitation Wind Pressure Humidity
00:00 +23°C° 0.1 mm 1 mps 711 mmHg 92%
01:00 +21°C° 0.1 mm 0 mps 711 mmHg 92%
02:00 +21°C° 0.1 mm 0 mps 711 mmHg 92%
03:00 +21°C° 0.1 mm 0 mps 711 mmHg 92%
04:00 +21°C° 0.1 mm 0 mps 711 mmHg 92%
05:00 +22°C° 0.1 mm 0 mps 711 mmHg 90%
06:00 +22°C° 0.1 mm 0 mps 712 mmHg 88%
07:00 +23°C° 0.1 mm 0 mps 712 mmHg 85%
08:00 +24°C° 0.7 mm 0 mps 713 mmHg 84%
09:00 +26°C° 0.7 mm 1 mps 713 mmHg 82%
10:00 +27°C° 0.7 mm 1 mps 713 mmHg 80%
11:00 +27°C° 1.4 mm 1 mps 713 mmHg 80%
12:00 +28°C° 1.4 mm 1 mps 712 mmHg 80%
13:00 +28°C° 1.4 mm 2 mps 712 mmHg 80%
14:00 +28°C° 2 mm 1 mps 711 mmHg 81%
15:00 +27°C° 2 mm 1 mps 711 mmHg 81%
16:00 +27°C° 2 mm 1 mps 710 mmHg 81%
17:00 +26°C° 1.1 mm 1 mps 711 mmHg 84%
18:00 +25°C° 1.1 mm 1 mps 711 mmHg 86%
19:00 +24°C° 1.1 mm 1 mps 711 mmHg 88%
20:00 +24°C° 0.2 mm 1 mps 712 mmHg 88%
21:00 +24°C° 0.2 mm 1 mps 712 mmHg 88%
22:00 +23°C° 0.2 mm 1 mps 712 mmHg 88%
23:00 +23°C° 0 mm 1 mps 712 mmHg 88%

Tomorrow, 13 July, Monday

Time Temperature Precipitation Wind Pressure Humidity
00:00 +23°C° 0 mm 1 mps 712 mmHg 88%
01:00 +23°C° 0 mm 1 mps 711 mmHg 88%
02:00 +23°C° 0 mm 1 mps 711 mmHg 88%
03:00 +23°C° 0 mm 1 mps 711 mmHg 88%
04:00 +21°C° 0 mm 0 mps 711 mmHg 88%
05:00 +21°C° 0 mm 0 mps 712 mmHg 87%
06:00 +22°C° 0 mm 0 mps 712 mmHg 86%
07:00 +23°C° 0 mm 0 mps 713 mmHg 85%
08:00 +26°C° 0 mm 1 mps 713 mmHg 79%
09:00 +28°C° 0 mm 1 mps 713 mmHg 72%
10:00 +29°C° 0 mm 2 mps 714 mmHg 66%
11:00 +29°C° 0.2 mm 2 mps 713 mmHg 66%
12:00 +30°C° 0.2 mm 2 mps 713 mmHg 66%
13:00 +30°C° 0.2 mm 2 mps 712 mmHg 65%
14:00 +29°C° 0.5 mm 2 mps 712 mmHg 69%
15:00 +29°C° 0.5 mm 2 mps 711 mmHg 72%
16:00 +28°C° 0.5 mm 1 mps 711 mmHg 75%
17:00 +27°C° 0.2 mm 1 mps 711 mmHg 79%
18:00 +26°C° 0.2 mm 1 mps 712 mmHg 83%
19:00 +25°C° 0.2 mm 1 mps 712 mmHg 88%
20:00 +24°C° 0.7 mm 1 mps 712 mmHg 88%
21:00 +24°C° 0.7 mm 1 mps 713 mmHg 89%
22:00 +24°C° 0.7 mm 1 mps 713 mmHg 90%
23:00 +24°C° 0 mm 1 mps 713 mmHg 90%

Day after tomorrow, 14 July, Tuesday

Time Temperature Precipitation Wind Pressure Humidity
00:00 +21°C° 0 mm 0 mps 712 mmHg 91%
01:00 +21°C° 0 mm 0 mps 712 mmHg 91%
02:00 +21°C° 0 mm 0 mps 712 mmHg 90%
03:00 +23°C° 0 mm 1 mps 712 mmHg 90%
04:00 +23°C° 0 mm 1 mps 711 mmHg 90%
05:00 +24°C° 0 mm 1 mps 712 mmHg 88%
06:00 +22°C° 0 mm 0 mps 712 mmHg 87%
07:00 +23°C° 0 mm 0 mps 713 mmHg 86%
08:00 +26°C° 0 mm 1 mps 713 mmHg 80%
09:00 +28°C° 0 mm 1 mps 713 mmHg 74%
10:00 +29°C° 0 mm 1 mps 714 mmHg 68%
11:00 +30°C° 0.1 mm 2 mps 713 mmHg 66%
12:00 +30°C° 0.1 mm 2 mps 713 mmHg 64%
13:00 +31°C° 0.1 mm 2 mps 712 mmHg 62%
14:00 +30°C° 0.3 mm 2 mps 712 mmHg 65%
15:00 +30°C° 0.3 mm 2 mps 711 mmHg 69%
16:00 +29°C° 0.3 mm 2 mps 710 mmHg 72%
17:00 +28°C° 0.2 mm 1 mps 711 mmHg 78%
18:00 +26°C° 0.2 mm 1 mps 711 mmHg 84%
19:00 +25°C° 0.2 mm 1 mps 712 mmHg 89%
20:00 +25°C° 0 mm 1 mps 712 mmHg 90%
21:00 +24°C° 0 mm 1 mps 712 mmHg 91%
22:00 +24°C° 0 mm 1 mps 712 mmHg 92%
23:00 +24°C° 0.1 mm 1 mps 712 mmHg 92%

15 July, Wednesday

Time Temperature Precipitation Wind Pressure Humidity
00:00 +21°C° 0.1 mm 0 mps 712 mmHg 93%
01:00 +21°C° 0.1 mm 0 mps 711 mmHg 93%
02:00 +21°C° 0.1 mm 0 mps 711 mmHg 93%
03:00 +21°C° 0.1 mm 0 mps 711 mmHg 93%
04:00 +21°C° 0.1 mm 0 mps 711 mmHg 93%
05:00 +21°C° 0 mm 0 mps 711 mmHg 91%
06:00 +22°C° 0 mm 0 mps 712 mmHg 89%
07:00 +23°C° 0 mm 0 mps 712 mmHg 87%
08:00 +26°C° 0.1 mm 1 mps 713 mmHg 81%
09:00 +28°C° 0.1 mm 1 mps 713 mmHg 75%
10:00 +29°C° 0.1 mm 1 mps 713 mmHg 70%
11:00 +30°C° 0.3 mm 1 mps 712 mmHg 68%
12:00 +30°C° 0.3 mm 1 mps 712 mmHg 66%
13:00 +30°C° 0.3 mm 2 mps 711 mmHg 63%
14:00 +30°C° 0.6 mm 2 mps 711 mmHg 67%
15:00 +29°C° 0.6 mm 1 mps 710 mmHg 70%
16:00 +28°C° 0.6 mm 1 mps 710 mmHg 73%
17:00 +27°C° 0.4 mm 1 mps 710 mmHg 78%
18:00 +26°C° 0.4 mm 1 mps 710 mmHg 83%
19:00 +25°C° 0.4 mm 1 mps 711 mmHg 87%
20:00 +24°C° 0.3 mm 1 mps 711 mmHg 88%
21:00 +24°C° 0.3 mm 1 mps 711 mmHg 89%
22:00 +23°C° 0.3 mm 1 mps 712 mmHg 90%
23:00 +23°C° 0.2 mm 1 mps 711 mmHg 90%

16 July, Thursday

Time Temperature Precipitation Wind Pressure Humidity
00:00 +21°C° 0.2 mm 0 mps 711 mmHg 90%
01:00 +21°C° 0.2 mm 0 mps 711 mmHg 89%
02:00 +21°C° 0 mm 0 mps 711 mmHg 89%
03:00 +22°C° 0 mm 1 mps 711 mmHg 89%
04:00 +22°C° 0 mm 1 mps 711 mmHg 89%
05:00 +23°C° 0 mm 1 mps 711 mmHg 87%
06:00 +24°C° 0 mm 1 mps 712 mmHg 84%
07:00 +25°C° 0 mm 1 mps 712 mmHg 82%
08:00 +26°C° 0 mm 1 mps 712 mmHg 76%
09:00 +28°C° 0 mm 1 mps 712 mmHg 69%
10:00 +29°C° 0 mm 2 mps 713 mmHg 62%
11:00 +30°C° 0.2 mm 2 mps 712 mmHg 62%
12:00 +30°C° 0.2 mm 2 mps 712 mmHg 63%
13:00 +30°C° 0.2 mm 3 mps 711 mmHg 63%
14:00 +30°C° 0.3 mm 2 mps 711 mmHg 65%
15:00 +30°C° 0.3 mm 2 mps 710 mmHg 67%
16:00 +29°C° 0.3 mm 2 mps 710 mmHg 70%
17:00 +28°C° 0.4 mm 2 mps 710 mmHg 75%
18:00 +26°C° 0.4 mm 1 mps 711 mmHg 80%
19:00 +25°C° 0.4 mm 1 mps 711 mmHg 85%
20:00 +25°C° 0.2 mm 1 mps 711 mmHg 85%
21:00 +24°C° 0.2 mm 1 mps 712 mmHg 86%
22:00 +24°C° 0.2 mm 1 mps 712 mmHg 86%
23:00 +24°C° 0 mm 1 mps 711 mmHg 86%

17 July, Friday

Time Temperature Precipitation Wind Pressure Humidity
00:00 +23°C° 0 mm 1 mps 711 mmHg 86%
01:00 +23°C° 0 mm 1 mps 711 mmHg 86%
02:00 +23°C° 0 mm 1 mps 711 mmHg 85%
03:00 +23°C° 0 mm 1 mps 711 mmHg 85%
04:00 +23°C° 0 mm 1 mps 711 mmHg 85%
05:00 +24°C° 0 mm 1 mps 711 mmHg 84%
06:00 +24°C° 0 mm 1 mps 712 mmHg 83%
07:00 +25°C° 0 mm 1 mps 712 mmHg 81%
08:00 +26°C° 0.4 mm 1 mps 712 mmHg 78%
09:00 +27°C° 0.4 mm 2 mps 712 mmHg 74%
10:00 +29°C° 0.4 mm 2 mps 712 mmHg 71%
11:00 +29°C° 1.3 mm 2 mps 712 mmHg 72%
12:00 +29°C° 1.3 mm 2 mps 711 mmHg 74%
13:00 +29°C° 1.3 mm 2 mps 711 mmHg 75%
14:00 +28°C° 1.4 mm 2 mps 710 mmHg 76%
15:00 +28°C° 1.4 mm 1 mps 710 mmHg 77%
16:00 +28°C° 1.4 mm 1 mps 710 mmHg 77%
17:00 +27°C° 0.8 mm 1 mps 710 mmHg 80%
18:00 +26°C° 0.8 mm 1 mps 710 mmHg 83%
19:00 +25°C° 0.8 mm 1 mps 710 mmHg 86%
20:00 +24°C° 0.2 mm 1 mps 711 mmHg 86%
21:00 +24°C° 0.2 mm 1 mps 711 mmHg 87%
22:00 +24°C° 0.2 mm 1 mps 711 mmHg 87%
23:00 +23°C° 0.1 mm 1 mps 711 mmHg 88%
Show more